SCP
0 0 0 0 0 0 0 0 0 0 0 0 0 0 0 0 0 0 0 0 0 0
0 0 0 0 0 0 0 0 0 0 0 0 0 0 0 0 0 0 0 0 0 0
0 0 0 0 0 0 0 0 0 0 0 0 0 0 0 0 0 0 0 0 0 0
0 0 0 0 0 0 0 0 0 0 0 0 0 0 0 0 0 0 0 -0 -0 0
0 0 0 0 0 0 0 0 0 0 0 0 0 0 0 0 0 0 0 -0 0 0
0 0 0 0 0 0 0 0 0 0 0 0 0 0 0 0 0 0 0 0 0 0
0 0 0 0 0 0 0 0 0 0 0 0 -0 -0 -0 0 0 0 0 0 0 0
0 0 0 0 0 0 0 0 0 0 0 0 -0 -0 -0 -0 -0 -0 0 0 0 0
-0 0 -0 -0 0 0 0 0 0 0 0 0 0 -0 -0 -0 -0 -0 -0 -0 0 0
0 -0 -0 -0 -0 -0 -0 -0 0 0 0 0 0 0 -0 0 -0 -0 -0 -0 -0 -0
-0 -0 -0 -0 -0 -0 -0 -0 0 0 0 0 0 0 0 0 0 0 -0 -0 -0 -0
-0 -0 -0 -0 -0 -0 -0 -0 0 0 0 0 0 0 0 0 0 0 0 0 -0 -0
0 0 0 0 0 0 0 0 0 0 0 0 0 0 0 0 0 0 0 0 0 -0
-0 -0 0 0 0 0 0 0 0 0 0 0 0 0 0 0 0 0 0 0 -0 0
Wind_Speed_500mb
44 41 55 65 78 64 59 61 62 57 50 48 49 44 45 44 38 35 37 40 36 42
46 56 64 69 61 61 59 55 56 51 46 47 47 41 44 39 38 36 37 34 35 36
55 61 60 56 54 60 50 54 51 42 44 47 45 38 39 38 33 33 38 35 31 30
62 60 59 59 55 49 51 49 45 41 42 40 36 34 33 30 33 33 36 34 28 26
53 45 48 48 46 43 48 45 37 35 28 32 32 31 33 32 33 33 32 33 31 27
49 51 47 34 37 37 32 26 21 24 31 30 31 37 37 38 35 29 33 29 24 22
43 37 23 26 32 35 37 32 31 30 33 32 28 32 32 24 25 25 25 23 13 6
32 25 26 30 29 33 31 30 26 26 19 26 23 29 34 27 27 27 19 14 18 20
24 30 35 30 30 33 32 26 24 23 17 21 28 25 23 28 25 29 29 30 28 30
34 33 29 30 26 28 26 21 22 20 19 18 24 25 31 18 21 19 25 27 30 32
26 30 25 24 27 26 25 25 24 20 18 15 20 24 24 21 6 17 19 19 22 26
30 28 33 26 25 26 24 25 23 20 21 20 23 23 18 19 14 11 15 17 21 21
29 27 34 31 23 27 27 26 21 19 21 17 22 26 22 22 24 18 18 19 24 29
35 29 32 28 27 27 29 32 25 22 22 26 28 31 32 22 21 23 19 18 25 35
Wind_Direction_500mb
329 315 313 314 313 317 315 319 323 323 326 319 323 320 320 320 313 316 314 313 303 298
322 323 318 315 315 317 317 317 320 320 319 315 318 318 315 319 319 318 312 312 309 304
322 315 319 316 318 320 319 313 323 322 319 316 325 319 319 319 309 314 315 317 323 322
321 325 319 320 320 322 318 317 321 319 317 323 329 329 331 327 322 311 315 313 311 320
322 332 325 326 321 318 312 315 323 324 345 356 352 351 346 342 342 337 325 324 315 307
324 314 319 331 348 339 335 336 338 13 4 359 351 348 345 331 326 339 337 327 323 326
324 326 343 345 329 336 343 348 350 352 344 329 349 352 347 351 354 344 348 4 10 348
320 328 347 331 331 335 337 336 348 357 5 10 4 3 14 12 7 3 5 352 23 20
351 342 335 340 337 330 338 343 347 357 8 10 10 12 22 20 23 36 46 52 54 48
340 334 341 333 337 344 343 349 350 352 6 5 9 25 23 9 29 46 39 50 53 49
340 345 351 354 352 356 5 4 10 12 12 360 6 12 31 13 360 32 43 56 36 31
4 5 354 348 2 4 6 8 21 8 27 23 16 6 7 2 10 33 48 49 25 17
356 352 359 7 18 15 16 24 28 21 18 30 10 17 11 25 32 33 44 33 355 7
9 7 356 13 17 16 24 26 25 23 26 13 24 30 28 35 36 35 24 17 2 2
Wind_Speed_850mb
44 41 55 65 78 64 59 61 62 57 50 48 49 44 45 44 38 35 37 40 36 42
46 56 64 69 61 61 59 55 56 51 46 47 47 41 44 39 38 36 37 34 35 36
55 61 60 56 54 60 50 54 51 42 44 47 45 38 39 38 33 33 38 35 31 30
62 60 59 59 55 49 51 49 45 41 42 40 36 34 33 30 33 33 36 34 28 26
53 45 48 48 46 43 48 45 37 35 28 32 32 31 33 32 33 33 32 33 31 27
49 51 47 34 37 37 32 26 21 24 31 30 31 37 37 38 35 29 33 29 24 22
43 37 23 26 32 35 37 32 31 30 33 32 28 32 32 24 25 25 25 23 13 6
32 25 26 30 29 33 31 30 26 26 19 26 23 29 34 27 27 27 19 14 18 20
24 30 35 30 30 33 32 26 24 23 17 21 28 25 23 28 25 29 29 30 28 30
34 33 29 30 26 28 26 21 22 20 19 18 24 25 31 18 21 19 25 27 30 32
26 30 25 24 27 26 25 25 24 20 18 15 20 24 24 21 6 17 19 19 22 26
30 28 33 26 25 26 24 25 23 20 21 20 23 23 18 19 14 11 15 17 21 21
29 27 34 31 23 27 27 26 21 19 21 17 22 26 22 22 24 18 18 19 24 29
35 29 32 28 27 27 29 32 25 22 22 26 28 31 32 22 21 23 19 18 25 35
Wind_Direction_850mb
329 315 313 314 313 317 315 319 323 323 326 319 323 320 320 320 313 316 314 313 303 298
322 323 318 315 315 317 317 317 320 320 319 315 318 318 315 319 319 318 312 312 309 304
322 315 319 316 318 320 319 313 323 322 319 316 325 319 319 319 309 314 315 317 323 322
321 325 319 320 320 322 318 317 321 319 317 323 329 329 331 327 322 311 315 313 311 320
322 332 325 326 321 318 312 315 323 324 345 356 352 351 346 342 342 337 325 324 315 307
324 314 319 331 348 339 335 336 338 13 4 359 351 348 345 331 326 339 337 327 323 326
324 326 343 345 329 336 343 348 350 352 344 329 349 352 347 351 354 344 348 4 10 348
320 328 347 331 331 335 337 336 348 357 5 10 4 3 14 12 7 3 5 352 23 20
351 342 335 340 337 330 338 343 347 357 8 10 10 12 22 20 23 36 46 52 54 48
340 334 341 333 337 344 343 349 350 352 6 5 9 25 23 9 29 46 39 50 53 49
340 345 351 354 352 356 5 4 10 12 12 360 6 12 31 13 360 32 43 56 36 31
4 5 354 348 2 4 6 8 21 8 27 23 16 6 7 2 10 33 48 49 25 17
356 352 359 7 18 15 16 24 28 21 18 30 10 17 11 25 32 33 44 33 355 7
9 7 356 13 17 16 24 26 25 23 26 13 24 30 28 35 36 35 24 17 2 2